Вернуться в каталог

STARLINK-30085

АктивенСвязьVLEO
NORAD 56709·PAYLOAD·🇺🇸 United States

Запущен May 19, 2023 с Cape Canaveral Space Force Station

Loading…

Ближайшие Пролёты (ближайшие 24 часа)

TLE

СвежийSource: CelesTrak SupGP

Эпоха: Sep 15, 2026, 02:37 UTC

1 56709C 23067X   26258.10951389  .00006676  00000+0  24172-3 0  2585
2 56709  43.0024 281.0300 0001440 271.7272  53.9258 15.27583544    10

Отслеживайте STARLINK-30085 в реальном времени с AllMySat

Download on the App Store